Regional Weather Roundup
Issued by NWS

Home | Current Version | Previous Version | Graphics & Text | Print | Product List | Glossary On
Versions: 1 2 3 4 5 6 7 8 9 10 11 12 13 14 15 16 17 18 19 20 21 22 23 24 25 26 27 28 29 30 31 32 33 34 35 36 37 38 39 40 41 42 43 44 45 46 47 48 49 50
000
ASUS43 KFSD 182210
RWRSD

WEATHER ROUNDUP FOR SOUTH DAKOTA
NATIONAL WEATHER SERVICE SIOUX FALLS SD
500 PM CDT FRI APR 18 2014

NOTE: "FAIR" INDICATES FEW OR NO CLOUDS BELOW 12,000 FEET WITH NO
SIGNIFICANT WEATHER AND/OR OBSTRUCTIONS TO VISIBILITY.


SDZ001>005-009-010-012>017-182300-
NORTHWEST AND NORTH CENTRAL SOUTH DAKOTA

CITY           SKY/WX    TMP DP  RH WIND       PRES   REMARKS
BUFFALO          N/A     69  40  34 SE17      29.54F
FAITH            N/A     69  41  36 SE18G25   29.61F
MOBRIDGE       PTSUNNY   70  39  32 SE24G31   29.65F
$$

SDZ012>016-024>037-041>051-057-063-072>074-182300-
SOUTHWEST AND SOUTH CENTRAL SOUTH DAKOTA

CITY           SKY/WX    TMP DP  RH WIND       PRES   REMARKS
RAPID CTY ARPT CLOUDY    73  37  27 S24G32    29.64F
PIERRE         PTSUNNY   82  35  18 S29G38    29.65F
CUSTER         CLOUDY    61  32  33 SW9G20    29.78F
ELLSWORTH AFB  CLOUDY    73  38  28 S25       29.63F
PHILIP         CLOUDY    82  40  22 S26G32    29.62F
PINE RIDGE     CLOUDY    79  37  22 S23G30    29.71F
SPEARFISH      FAIR      75  34  22 SW21G31   29.62S
WINNER         FAIR      75  37  25 S26G38    29.78F
$$

SDZ004>011-016>023-039-040-182300-
NORTHEAST SOUTH DAKOTA

CITY           SKY/WX    TMP DP  RH WIND       PRES   REMARKS
ABERDEEN       MOSUNNY   67  38  34 S35G43    29.85F
WATERTOWN      SUNNY     62  36  37 S31G39    29.96F
SISSETON         N/A     50  37  61 S33G40    30.02F
$$

SDZ017-020-022-023-036>040-048>070-182300-
SOUTHEAST SOUTH DAKOTA

CITY           SKY/WX    TMP DP  RH WIND       PRES   REMARKS
SIOUX FALLS    PTSUNNY   65  35  33 S28G40    30.01F
HURON          MOSUNNY   70  38  31 S29G41    29.84F
CHAMBERLAIN      N/A     75  37  25 S31G43    29.77F
MITCHELL       MOSUNNY   71  40  32 S32G49    29.89F
YANKTON        MOSUNNY   68  39  34 S28G36    29.97F
$$

ABBREVIATIONS USED IN REMARKS
   TC - TEMPERATURE IN CELSIUS
  WCI - WIND CHILL INDEX
   HX - HEAT INDEX
  VSB - VISIBILITY




USA.gov is the U.S. government's official web portal to all federal, state and local government web resources and services.